TimePDT,TemperatureF,Dew PointF,Humidity,Sea Level PressureIn,VisibilityMPH,Wind Direction,Wind SpeedMPH,Gust SpeedMPH,PrecipitationIn,Events,Conditions,WindDirDegrees,DateUTC
12:53 AM,55.9,55.0,97,29.99,10.0,Calm,Calm,-,N/A,,Clear,0,2012-10-28 07:53:00
1:53 AM,55.9,54.0,93,29.99,10.0,Calm,Calm,-,N/A,,Clear,0,2012-10-28 08:53:00
2:53 AM,54.0,54.0,100,29.99,10.0,Calm,Calm,-,N/A,,Clear,0,2012-10-28 09:53:00
3:53 AM,52.0,52.0,100,29.98,10.0,Calm,Calm,-,N/A,,Clear,0,2012-10-28 10:53:00
4:53 AM,51.1,51.1,100,29.98,10.0,Calm,Calm,-,N/A,,Clear,0,2012-10-28 11:53:00
5:53 AM,57.7,48.7,72,29.98,10.0,Calm,Calm,-,N/A,,Clear,0,2012-10-28 12:53:00
6:53 AM,58.1,47.5,68,29.98,10.0,Calm,Calm,-,N/A,,Clear,0,2012-10-28 13:53:00
7:53 AM,57.2,48.2,72,29.98,10.0,Calm,Calm,-,N/A,,Partly Cloudy,0,2012-10-28 14:53:00
8:53 AM,54.0,54.0,100,30.00,10.0,Calm,Calm,-,N/A,,Clear,0,2012-10-28 15:53:00
9:53 AM,60.8,53.6,77,30.00,10.0,Calm,Calm,-,N/A,,Clear,0,2012-10-28 16:53:00
10:53 AM,64.0,54.0,70,30.00,10.0,Calm,Calm,-,N/A,,Clear,0,2012-10-28 17:53:00
11:53 AM,66.9,55.0,66,29.99,10.0,WSW,3.5,-,N/A,,Clear,250,2012-10-28 18:53:00
12:53 PM,70.0,53.1,55,29.98,10.0,NW,5.8,-,N/A,,Clear,310,2012-10-28 19:53:00
1:53 PM,73.0,54.0,51,29.95,10.0,WNW,6.9,-,N/A,,Clear,290,2012-10-28 20:53:00
2:53 PM,75.0,53.1,46,29.94,10.0,WNW,10.4,-,N/A,,Clear,300,2012-10-28 21:53:00
3:53 PM,73.9,54.0,50,29.95,10.0,WNW,11.5,-,N/A,,Clear,300,2012-10-28 22:53:00
4:53 PM,73.9,54.0,50,29.95,10.0,WNW,10.4,-,N/A,,Clear,300,2012-10-28 23:53:00
5:53 PM,68.0,57.0,68,29.96,10.0,WNW,9.2,-,N/A,,Clear,300,2012-10-29 00:53:00
6:53 PM,63.0,57.9,84,29.98,10.0,WNW,11.5,-,N/A,,Clear,300,2012-10-29 01:53:00
7:53 PM,60.1,59.0,96,29.99,10.0,West,10.4,-,N/A,,Clear,280,2012-10-29 02:53:00
8:53 PM,55.9,55.9,100,30.01,10.0,WNW,4.6,-,N/A,,Clear,300,2012-10-29 03:53:00
9:53 PM,55.0,55.0,100,30.02,10.0,West,3.5,-,N/A,,Clear,260,2012-10-29 04:53:00
10:53 PM,54.0,54.0,100,30.03,10.0,WNW,4.6,-,N/A,,Clear,300,2012-10-29 05:53:00
11:53 PM,56.8,55.6,96,30.04,10.0,WNW,3.5,-,N/A,,Clear,300,2012-10-29 06:53:00